When you browse on this site, cookies collect data to enhance your experience and personalize the content and advertising you see.
Visit our Privacy Policy to learn more. By continuing to use the site, you agree to this use of cookies and data.
  • En España
  • Lista de países
  • Para 7 días
  • Temperatura del agua
  • Mapa Satelital
  • El tiempo en el mapa
  • Informadores
  • user-avatar
    Iniciar sesión

    Tiempo cada hora Constantine

    Hoy, 25 Junio, Martes

    Tiempo Temperatura Precipitaciones Viento Presión Humedad
    00:00 +30°C° 0 mm 1 mps 711 mmHg 17%
    01:00 +30°C° 0 mm 1 mps 711 mmHg 16%
    02:00 +29°C° 0 mm 1 mps 711 mmHg 15%
    03:00 +29°C° 0 mm 1 mps 710 mmHg 15%
    04:00 +30°C° 0 mm 1 mps 711 mmHg 15%
    05:00 +32°C° 0 mm 1 mps 712 mmHg 15%
    06:00 +33°C° 0 mm 1 mps 712 mmHg 16%
    07:00 +37°C° 0 mm 2 mps 713 mmHg 13%
    08:00 +39°C° 0 mm 3 mps 713 mmHg 11%
    09:00 +42°C° 0 mm 4 mps 714 mmHg 8%
    10:00 +43°C° 0 mm 3 mps 714 mmHg 7%
    11:00 +44°C° 0 mm 3 mps 714 mmHg 7%
    12:00 +43°C° 0 mm 2 mps 714 mmHg 6%
    13:00 +44°C° 0 mm 3 mps 714 mmHg 7%
    14:00 +44°C° 0 mm 3 mps 713 mmHg 8%
    15:00 +44°C° 0 mm 4 mps 713 mmHg 9%
    16:00 +42°C° 0 mm 4 mps 713 mmHg 13%
    17:00 +40°C° 0 mm 4 mps 713 mmHg 17%
    18:00 +36°C° 0 mm 3 mps 713 mmHg 21%
    19:00 +35°C° 0 mm 2 mps 713 mmHg 23%
    20:00 +32°C° 0 mm 2 mps 713 mmHg 25%
    21:00 +30°C° 0 mm 1 mps 713 mmHg 27%
    22:00 +30°C° 0 mm 1 mps 713 mmHg 27%
    23:00 +30°C° 0 mm 1 mps 713 mmHg 27%

    Mañana, 26 Junio, Miércoles

    Tiempo Temperatura Precipitaciones Viento Presión Humedad
    00:00 +27°C° 0 mm 0 mps 713 mmHg 27%
    01:00 +29°C° 0 mm 1 mps 712 mmHg 27%
    02:00 +29°C° 0 mm 1 mps 712 mmHg 28%
    03:00 +28°C° 0 mm 1 mps 712 mmHg 29%
    04:00 +30°C° 0 mm 1 mps 712 mmHg 28%
    05:00 +31°C° 0 mm 1 mps 713 mmHg 27%
    06:00 +32°C° 0 mm 1 mps 713 mmHg 26%
    07:00 +34°C° 0 mm 1 mps 713 mmHg 22%
    08:00 +36°C° 0 mm 1 mps 714 mmHg 19%
    09:00 +40°C° 0 mm 2 mps 714 mmHg 16%
    10:00 +42°C° 0 mm 3 mps 714 mmHg 14%
    11:00 +43°C° 0 mm 4 mps 714 mmHg 13%
    12:00 +45°C° 0 mm 5 mps 714 mmHg 11%
    13:00 +43°C° 0 mm 5 mps 714 mmHg 11%
    14:00 +44°C° 0 mm 6 mps 714 mmHg 11%
    15:00 +44°C° 0 mm 7 mps 713 mmHg 11%
    16:00 +41°C° 0 mm 6 mps 713 mmHg 16%
    17:00 +39°C° 0 mm 5 mps 713 mmHg 20%
    18:00 +36°C° 0 mm 3 mps 713 mmHg 25%
    19:00 +34°C° 0 mm 3 mps 713 mmHg 28%
    20:00 +31°C° 0 mm 2 mps 713 mmHg 32%
    21:00 +29°C° 0 mm 1 mps 713 mmHg 35%
    22:00 +28°C° 0 mm 1 mps 713 mmHg 35%
    23:00 +27°C° 0 mm 1 mps 713 mmHg 35%

    Pasado mañana, 27 Junio, Jueves

    Tiempo Temperatura Precipitaciones Viento Presión Humedad
    00:00 +25°C° 0 mm 0 mps 712 mmHg 35%
    01:00 +24°C° 0 mm 0 mps 712 mmHg 35%
    02:00 +24°C° 0 mm 0 mps 712 mmHg 34%
    03:00 +23°C° 0 mm 0 mps 711 mmHg 34%
    04:00 +25°C° 0 mm 0 mps 712 mmHg 31%
    05:00 +26°C° 0 mm 0 mps 712 mmHg 29%
    06:00 +29°C° 0 mm 1 mps 712 mmHg 27%
    07:00 +31°C° 0 mm 1 mps 713 mmHg 25%
    08:00 +34°C° 0 mm 2 mps 713 mmHg 23%
    09:00 +35°C° 0 mm 2 mps 713 mmHg 21%
    10:00 +36°C° 0 mm 3 mps 713 mmHg 20%
    11:00 +37°C° 0 mm 4 mps 713 mmHg 20%
    12:00 +39°C° 0 mm 5 mps 713 mmHg 19%
    13:00 +39°C° 0 mm 5 mps 712 mmHg 20%
    14:00 +38°C° 0 mm 6 mps 712 mmHg 22%
    15:00 +38°C° 0 mm 6 mps 711 mmHg 23%
    16:00 +35°C° 0 mm 5 mps 711 mmHg 27%
    17:00 +33°C° 0 mm 5 mps 711 mmHg 31%
    18:00 +32°C° 0 mm 4 mps 711 mmHg 35%
    19:00 +29°C° 0 mm 3 mps 711 mmHg 41%
    20:00 +27°C° 0 mm 2 mps 711 mmHg 47%
    21:00 +25°C° 0 mm 1 mps 711 mmHg 52%
    22:00 +25°C° 0 mm 1 mps 711 mmHg 54%
    23:00 +24°C° 0 mm 1 mps 711 mmHg 55%

    28 Junio, Viernes

    Tiempo Temperatura Precipitaciones Viento Presión Humedad
    00:00 +24°C° 0 mm 1 mps 711 mmHg 56%
    01:00 +21°C° 0 mm 0 mps 710 mmHg 56%
    02:00 +21°C° 0 mm 0 mps 710 mmHg 56%
    03:00 +21°C° 0 mm 0 mps 710 mmHg 57%
    04:00 +22°C° 0 mm 0 mps 710 mmHg 53%
    05:00 +23°C° 0 mm 0 mps 710 mmHg 50%
    06:00 +24°C° 0 mm 0 mps 711 mmHg 47%
    07:00 +28°C° 0 mm 1 mps 711 mmHg 41%
    08:00 +30°C° 0 mm 1 mps 711 mmHg 35%
    09:00 +32°C° 0 mm 1 mps 711 mmHg 29%
    10:00 +35°C° 0 mm 2 mps 711 mmHg 26%
    11:00 +36°C° 0 mm 2 mps 711 mmHg 22%
    12:00 +37°C° 0 mm 3 mps 711 mmHg 19%
    13:00 +37°C° 0 mm 4 mps 711 mmHg 21%
    14:00 +37°C° 0 mm 5 mps 711 mmHg 22%
    15:00 +38°C° 0 mm 6 mps 710 mmHg 23%
    16:00 +35°C° 0 mm 5 mps 710 mmHg 28%
    17:00 +33°C° 0 mm 5 mps 710 mmHg 33%
    18:00 +30°C° 0 mm 4 mps 710 mmHg 37%
    19:00 +29°C° 0 mm 3 mps 710 mmHg 43%
    20:00 +27°C° 0 mm 2 mps 710 mmHg 48%
    21:00 +25°C° 0 mm 1 mps 710 mmHg 53%
    22:00 +24°C° 0 mm 1 mps 710 mmHg 54%
    23:00 +24°C° 0 mm 1 mps 710 mmHg 55%

    29 Junio, Sábado

    Tiempo Temperatura Precipitaciones Viento Presión Humedad
    00:00 +21°C° 0 mm 0 mps 709 mmHg 56%
    01:00 +21°C° 0 mm 0 mps 709 mmHg 55%
    02:00 +21°C° 0 mm 0 mps 709 mmHg 55%
    03:00 +22°C° 0 mm 1 mps 709 mmHg 54%
    04:00 +24°C° 0 mm 1 mps 709 mmHg 49%
    05:00 +25°C° 0 mm 1 mps 709 mmHg 45%
    06:00 +27°C° 0 mm 1 mps 710 mmHg 40%
    07:00 +29°C° 0 mm 1 mps 710 mmHg 33%
    08:00 +30°C° 0 mm 0 mps 711 mmHg 26%
    09:00 +33°C° 0 mm 0 mps 711 mmHg 19%
    10:00 +36°C° 0 mm 1 mps 711 mmHg 17%
    11:00 +37°C° 0 mm 1 mps 711 mmHg 15%
    12:00 +39°C° 0 mm 2 mps 711 mmHg 14%
    13:00 +39°C° 0 mm 3 mps 711 mmHg 14%
    14:00 +40°C° 0 mm 4 mps 711 mmHg 15%
    15:00 +41°C° 0 mm 5 mps 711 mmHg 15%
    16:00 +39°C° 0 mm 5 mps 710 mmHg 19%
    17:00 +36°C° 0 mm 4 mps 710 mmHg 23%
    18:00 +34°C° 0 mm 4 mps 710 mmHg 27%
    19:00 +31°C° 0 mm 3 mps 710 mmHg 30%
    20:00 +30°C° 0 mm 2 mps 710 mmHg 32%
    21:00 +28°C° 0 mm 1 mps 710 mmHg 35%
    22:00 +27°C° 0 mm 1 mps 710 mmHg 36%
    23:00 +27°C° 0 mm 1 mps 710 mmHg 36%

    30 Junio, Domingo

    Tiempo Temperatura Precipitaciones Viento Presión Humedad
    00:00 +26°C° 0 mm 1 mps 710 mmHg 36%
    01:00 +26°C° 0 mm 1 mps 710 mmHg 37%
    02:00 +25°C° 0 mm 1 mps 710 mmHg 38%
    03:00 +25°C° 0 mm 1 mps 709 mmHg 38%
    04:00 +27°C° 0 mm 1 mps 710 mmHg 36%
    05:00 +28°C° 0 mm 1 mps 710 mmHg 33%
    06:00 +30°C° 0 mm 1 mps 711 mmHg 30%
    07:00 +32°C° 0 mm 1 mps 711 mmHg 25%
    08:00 +34°C° 0 mm 1 mps 712 mmHg 20%
    09:00 +37°C° 0 mm 1 mps 712 mmHg 16%
    10:00 +39°C° 0 mm 1 mps 712 mmHg 14%
    11:00 +40°C° 0 mm 2 mps 712 mmHg 12%
    12:00 +42°C° 0 mm 3 mps 712 mmHg 10%
    13:00 +42°C° 0 mm 3 mps 712 mmHg 10%
    14:00 +42°C° 0 mm 4 mps 711 mmHg 10%
    15:00 +42°C° 0 mm 5 mps 711 mmHg 11%
    16:00 +40°C° 0 mm 4 mps 711 mmHg 13%
    17:00 +38°C° 0 mm 4 mps 710 mmHg 16%
    18:00 +36°C° 0 mm 4 mps 710 mmHg 19%
    19:00 +34°C° 0 mm 3 mps 710 mmHg 23%
    20:00 +31°C° 0 mm 2 mps 710 mmHg 27%
    21:00 +29°C° 0 mm 1 mps 710 mmHg 31%
    22:00 +28°C° 0 mm 1 mps 710 mmHg 31%
    23:00 +28°C° 0 mm 1 mps 710 mmHg 31%
    Mostrar más